H1 CPF 2 NER 2021 7 9 9 190 01 glonass137 H2 1705501 9137 42939 2021 7 9 0 0 0 2021 7 12 23 45 0 900 1 1 0 0 0 1 H9 10 0 59404 0.00000 0 -11065019.942 16545026.984 15956411.226 10 0 59404 900.00000 0 -12490450.358 17672743.078 13502524.580 10 0 59404 1800.00000 0 -13585150.479 18698380.727 10786354.737 10 0 59404 2700.00000 0 -14349750.602 19562849.306 7860593.429 10 0 59404 3600.00000 0 -14797422.891 20210400.823 4782043.950 10 0 59404 4500.00000 0 -14953090.355 20591078.946 1610519.003 10 0 59404 5400.00000 0 -14852149.363 20662945.167 -1592323.679 10 0 59404 6300.00000 0 -14538759.743 20393986.836 -4764185.004 10 0 59404 7200.00000 0 -14063775.171 19763625.206 -7843343.304 10 0 59404 8100.00000 0 -13482402.061 18763758.281 -10769863.631 10 0 59404 9000.00000 0 -12851686.866 17399292.990 -13486773.106 10 0 59404 9900.00000 0 -12227939.078 15688142.866 -15941178.297 10 0 59404 10800.00000 0 -11664199.992 13660690.178 -18085302.119 10 0 59404 11700.00000 0 -11207865.256 11358734.124 -19877419.395 10 0 59404 12600.00000 0 -10898562.543 8833968.605 -21282672.379 10 0 59404 13500.00000 0 -10766374.644 6146052.851 -22273750.303 10 0 59404 14400.00000 0 -10830483.413 3360355.276 -22831419.769 10 0 59404 15300.00000 0 -11098291.957 545464.586 -22944895.928 10 0 59404 16200.00000 0 -11565062.058 -2229428.238 -22612047.669 10 0 59404 17100.00000 0 -12214081.903 -4897168.389 -21839433.261 10 0 59404 18000.00000 0 -13017356.753 -7395186.554 -20642166.214 10 0 59404 18900.00000 0 -13936793.035 -9667853.696 -19043614.450 10 0 59404 19800.00000 0 -14925825.624 -11668544.143 -17074938.939 10 0 59404 20700.00000 0 -15931419.320 -13361322.076 -14774481.172 10 0 59404 21600.00000 0 -16896359.850 -14722182.542 -12187011.638 10 0 59404 22500.00000 0 -17761737.561 -15739796.784 -9362854.184 10 0 59404 23400.00000 0 -18469518.867 -16415732.421 -6356903.597 10 0 59404 24300.00000 0 -18965096.909 -16764141.172 -3227555.819 10 0 59404 25200.00000 0 -19199713.816 -16810929.047 -35571.802 10 0 59404 26100.00000 0 -19132652.478 -16592445.576 3157102.529 10 0 59404 27000.00000 0 -18733105.520 -16153748.741 6288537.150 10 0 59404 27900.00000 0 -17981642.839 -15546519.879 9298016.258 10 0 59404 28800.00000 0 -16871216.012 -14826717.191 12127210.797 10 0 59404 29700.00000 0 -15407657.295 -14052067.243 14721302.763 10 0 59404 30600.00000 0 -13609652.045 -13279500.163 17030040.030 10 0 59404 31500.00000 0 -11508185.309 -12562636.327 19008701.853 10 0 59404 32400.00000 0 -9145485.005 -11949429.816 20618957.254 10 0 59404 33300.00000 0 -6573504.811 -11480067.101 21829600.580 10 0 59404 34200.00000 0 -3852008.781 -11185208.657 22617150.809 10 0 59404 35100.00000 0 -1046335.886 -11084646.821 22966303.789 10 0 59404 36000.00000 0 1775064.286 -11186435.934 22870229.149 10 0 59404 36900.00000 0 4543223.983 -11486531.289 22330706.286 10 0 59404 37800.00000 0 7191271.954 -11968952.379 21358096.649 10 0 59404 38700.00000 0 9656963.403 -12606464.250 19971152.268 10 0 59404 39600.00000 0 11885021.302 -13361749.284 18196663.413 10 0 59404 40500.00000 0 13829192.805 -14189021.251 16068951.073 10 0 59404 41400.00000 0 15453935.864 -15036014.813 13629212.872 10 0 59404 42300.00000 0 16735665.997 -15846267.683 10924733.929 10 0 59404 43200.00000 0 17663511.360 -16561599.928 8007976.925 10 0 59404 44100.00000 0 18239544.494 -17124686.116 4935568.221 10 0 59404 45000.00000 0 18478480.914 -17481611.567 1767199.357 10 0 59404 45900.00000 0 18406857.274 -17584304.085 -1435534.781 10 0 59404 46800.00000 0 18061723.794 -17392737.406 -4610338.256 10 0 59404 47700.00000 0 17488906.409 -16876811.858 -7695432.689 10 0 59404 48600.00000 0 16740912.506 -16017831.239 -10630767.624 10 0 59404 49500.00000 0 15874569.455 -14809511.883 -13359198.148 10 0 59404 50400.00000 0 14948496.548 -13258479.785 -15827605.721 10 0 59404 51300.00000 0 14020518.116 -11384233.374 -17987939.582 10 0 59404 52200.00000 0 13145127.981 -9218572.238 -19798157.798 10 0 59404 53100.00000 0 12371113.104 -6804514.850 -21223049.117 10 0 59404 54000.00000 0 11739437.269 -4194749.891 -22234919.530 10 0 59404 54900.00000 0 11281474.383 -1449685.402 -22814130.247 10 0 59404 55800.00000 0 11017665.915 1364823.031 -22949476.853 10 0 59404 56700.00000 0 10956658.820 4179970.635 -22638402.706 10 0 59404 57600.00000 0 11094959.805 6926624.539 -21887042.864 10 0 59404 58500.00000 0 11417119.872 9537958.720 -20710098.176 10 0 59404 59400.00000 0 11896440.659 11951993.645 -19130542.414 10 0 59404 60300.00000 0 12496172.011 14113935.567 -17179168.512 10 0 59404 61200.00000 0 13171149.585 15978218.813 -14893983.106 10 0 59404 62100.00000 0 13869802.727 17510167.090 -12319461.424 10 0 59404 63000.00000 0 14536447.326 18687205.818 -9505677.284 10 0 59404 63900.00000 0 15113766.385 19499576.257 -6507325.454 10 0 59404 64800.00000 0 15545373.264 19950523.268 -3382655.659 10 0 59404 65700.00000 0 15778349.096 20055950.508 -192339.213 10 0 59404 66600.00000 0 15765647.157 19843559.186 3001709.349 10 0 59404 67500.00000 0 15468262.657 19351508.105 6137532.588 10 0 59404 68400.00000 0 14857076.427 18626652.596 9154329.062 10 0 59404 69300.00000 0 13914294.794 17722437.409 11993627.573 10 0 59404 70200.00000 0 12634424.980 16696532.792 14600414.256 10 0 59404 71100.00000 0 11024744.704 15608313.443 16924191.233 10 0 59404 72000.00000 0 9105245.936 14516286.164 18919946.880 10 0 59404 72900.00000 0 6908054.379 13475573.866 20549019.813 10 0 59404 73800.00000 0 4476347.927 12535560.883 21779840.770 10 0 59404 74700.00000 0 1862818.014 11737797.610 22588538.850 10 0 59404 75600.00000 0 -872263.648 11114251.559 22959401.164 10 0 59404 76500.00000 0 -3663294.286 10685977.418 22885177.505 10 0 59404 77400.00000 0 -6441813.430 10462261.523 22367224.298 10 0 59404 78300.00000 0 -9139099.587 10440276.342 21415484.936 10 0 59404 79200.00000 0 -11688784.129 10605259.598 20048306.325 10 0 59404 80100.00000 0 -14029375.071 10931211.035 18292094.362 10 0 59404 81000.00000 0 -16106587.018 11382078.186 16180813.913 10 0 59404 81900.00000 0 -17875381.036 11913382.058 13755341.727 10 0 59404 82800.00000 0 -19301629.806 12474215.045 11062683.704 10 0 59404 83700.00000 0 -20363338.642 13009527.426 8155070.597 10 0 59404 84600.00000 0 -21051371.203 13462606.290 5088948.864 10 0 59404 85500.00000 0 -21369649.169 13777642.081 1923885.892 10 0 59405 0.00000 0 -21334817.357 13902273.831 -1278589.164 10 0 59405 900.00000 0 -20975388.052 13790004.159 -4456186.525 10 0 59405 1800.00000 0 -20330400.999 13402381.739 -7547073.805 10 0 59405 2700.00000 0 -19447655.247 12710855.467 -10491087.675 10 0 59405 3600.00000 0 -18381588.507 11698222.360 -13230913.655 10 0 59405 4500.00000 0 -17190893.819 10359604.916 -15713210.349 10 0 59405 5400.00000 0 -15935975.061 8702915.740 -17889655.315 10 0 59405 6300.00000 0 -14676349.383 6748788.175 -19717891.559 10 0 59405 7200.00000 0 -13468106.859 4529974.720 -21162355.687 10 0 59405 8100.00000 0 -12361534.931 2090237.444 -22194971.480 10 0 59405 9000.00000 0 -11399007.970 -517223.944 -22795695.449 10 0 59405 9900.00000 0 -10613230.796 -3231741.083 -22952903.961 10 0 59405 10800.00000 0 -10025909.721 -5987461.315 -22663614.868 10 0 59405 11700.00000 0 -9646906.413 -8715852.449 -21933539.725 10 0 59405 12600.00000 0 -9473909.313 -11348323.820 -20776966.101 10 0 59405 13500.00000 0 -9492635.420 -13818854.894 -19216472.706 10 0 59405 14400.00000 0 -9677552.803 -16066522.430 -17282483.248 10 0 59405 15300.00000 0 -9993092.297 -18037821.460 -15012668.070 10 0 59405 16200.00000 0 -10395296.200 -19688684.210 -12451205.501 10 0 59405 17100.00000 0 -10833833.447 -20986113.716 -9647917.539 10 0 59405 18000.00000 0 -11254295.367 -21909365.058 -6657297.018 10 0 59405 18900.00000 0 -11600674.414 -22450626.184 -3537445.437 10 0 59405 19800.00000 0 -11817920.606 -22615171.294 -348942.372 10 0 59405 20700.00000 0 -11854467.381 -22420981.812 2846331.218 10 0 59405 21600.00000 0 -11664619.926 -21897852.290 5986392.769 10 0 59405 22500.00000 0 -11210705.041 -21086020.072 9010357.600 10 0 59405 23400.00000 0 -10464891.778 -20034377.290 11859614.845 10 0 59405 24300.00000 0 -9410606.040 -18798341.017 14478957.314 10 0 59405 25200.00000 0 -8043479.350 -17437471.363 16817643.897 10 0 59405 26100.00000 0 -6371791.616 -16012937.465 18830374.526 10 0 59405 27000.00000 0 -4416388.617 -14584937.301 20478159.680 10 0 59405 27900.00000 0 -2210076.719 -13210178.779 21729068.531 10 0 59405 28800.00000 0 203481.073 -11939526.769 22558842.062 10 0 59405 29700.00000 0 2771323.250 -10815913.593 22951360.080 10 0 59405 30600.00000 0 5433138.987 -9872599.458 22898953.625 10 0 59405 31500.00000 0 8123529.087 -9131854.841 22402556.892 10 0 59405 32400.00000 0 10774486.642 -8604119.354 21471695.635 10 0 59405 33300.00000 0 13317996.080 -8287671.990 20124311.712 10 0 59405 34200.00000 0 15688644.073 -8168826.580 18386426.365 10 0 59405 35100.00000 0 17826134.961 -8222644.460 16291647.675 10 0 59405 36000.00000 0 19677606.843 -8414134.820 13880530.474 10 0 59405 36900.00000 0 21199652.154 -8699892.736 11199799.988 10 0 59405 37800.00000 0 22359958.486 -9030106.253 8301453.155 10 0 59405 38700.00000 0 23138500.837 -9350848.114 5241754.222 10 0 59405 39600.00000 0 23528234.857 -9606555.264 2080143.728 10 0 59405 40500.00000 0 23535261.600 -9742590.889 -1121918.051 10 0 59405 41400.00000 0 23178456.399 -9707779.795 -4302150.458 10 0 59405 42300.00000 0 22488577.231 -9456808.703 -7398670.555 10 0 59405 43200.00000 0 21506890.054 -8952388.417 -10351205.452 10 0 59405 44100.00000 0 20283369.255 -8167084.760 -13102274.309 10 0 59405 45000.00000 0 18874549.472 -7084739.192 -15598315.874 10 0 59405 45900.00000 0 17341119.914 -5701417.407 -17790738.803 10 0 59405 46800.00000 0 15745363.193 -4025844.302 -19636873.545 10 0 59405 47700.00000 0 14148547.170 -2079305.642 -21100806.783 10 0 59405 48600.00000 0 12608380.068 104980.649 -22154081.998 10 0 59405 49500.00000 0 11176636.135 2482998.187 -22776252.572 10 0 59405 50400.00000 0 9897051.655 5001524.013 -22955276.885 10 0 59405 51300.00000 0 8803579.344 7600112.679 -22687748.122 10 0 59405 52200.00000 0 7919073.728 10213390.110 -21978954.791 10 0 59405 53100.00000 0 7254461.795 12773561.806 -20842771.242 10 0 59405 54000.00000 0 6808432.499 15213031.142 -19301380.770 10 0 59405 54900.00000 0 6567656.783 17467018.972 -17384837.091 10 0 59405 55800.00000 0 6507527.431 19476075.674 -15130473.074 10 0 59405 56700.00000 0 6593386.096 21188381.443 -12582168.543 10 0 59405 57600.00000 0 6782184.456 22561739.525 -9789491.653 10 0 59405 58500.00000 0 7024508.165 23565179.945 -6806730.876 10 0 59405 59400.00000 0 7266877.136 24180107.731 -3691836.706 10 0 59405 60300.00000 0 7454224.135 24400948.726 -505293.903 10 0 59405 61200.00000 0 7532446.370 24235267.160 2691053.442 10 0 59405 62100.00000 0 7450921.818 23703351.300 5835201.037 10 0 59405 63000.00000 0 7164883.738 22837285.729 8866184.366 10 0 59405 63900.00000 0 6637552.994 21679550.130 11725256.222 10 0 59405 64800.00000 0 5841938.156 20281204.123 14357019.249 10 0 59405 65700.00000 0 4762227.334 18699734.632 16710492.048 10 0 59405 66600.00000 0 3394712.983 16996656.081 18740088.786 10 0 59405 67500.00000 0 1748210.295 15234963.606 20406494.192 10 0 59405 68400.00000 0 -156049.174 13476545.192 21677417.929 10 0 59405 69300.00000 0 -2285045.244 11779660.079 22528214.539 10 0 59405 70200.00000 0 -4595093.411 10196587.743 22942357.796 10 0 59405 71100.00000 0 -7033420.543 8771544.486 22911760.797 10 0 59405 72000.00000 0 -9540128.079 7538953.628 22436935.814 10 0 59405 72900.00000 0 -12050462.987 6522140.626 21526990.704 10 0 59405 73800.00000 0 -14497303.859 5732506.926 20199461.447 10 0 59405 74700.00000 0 -16813760.277 5169216.746 18479983.246 10 0 59405 75600.00000 0 -18935778.672 4819409.694 16401805.478 10 0 59405 76500.00000 0 -20804647.070 4658930.364 14005158.672 10 0 59405 77400.00000 0 -22369294.718 4653544.442 11336484.607 10 0 59405 78300.00000 0 -23588290.719 4760590.362 8447543.359 10 0 59405 79200.00000 0 -24431457.770 4930996.985 5394413.760 10 0 59405 80100.00000 0 -24881032.865 5111582.072 2236406.225 10 0 59405 81000.00000 0 -24932325.565 5247534.045 -965091.031 10 0 59405 81900.00000 0 -24593845.493 5284971.314 -4147809.778 10 0 59405 82800.00000 0 -23886893.043 5173469.862 -7249819.512 10 0 59405 83700.00000 0 -22844630.157 4868450.715 -10210740.682 10 0 59405 84600.00000 0 -21510670.091 4333324.724 -12972928.782 10 0 59405 85500.00000 0 -19937245.698 3541302.249 -15482605.179 10 0 59406 0.00000 0 -18183033.648 2476789.665 -17690911.734 10 0 59406 900.00000 0 -16310726.589 1136311.593 -19554868.211 10 0 59406 1800.00000 0 -14384455.826 -471080.037 -21038212.715 10 0 59406 2700.00000 0 -12467173.600 -2323930.871 -22112109.329 10 0 59406 3600.00000 0 -10618104.513 -4389036.555 -22755708.762 10 0 59406 4500.00000 0 -8890373.669 -6622597.529 -22956551.395 10 0 59406 5400.00000 0 -7328910.373 -8971827.927 -22710805.327 10 0 59406 6300.00000 0 -5968714.684 -11376951.917 -22023335.221 10 0 59406 7200.00000 0 -4833558.528 -13773504.307 -20907601.078 10 0 59406 8100.00000 0 -3935174.544 -16094839.651 -19385389.386 10 0 59406 9000.00000 0 -3272965.132 -18274745.356 -17486382.256 10 0 59406 9900.00000 0 -2834242.317 -20250049.921 -15247573.305 10 0 59406 10800.00000 0 -2594986.546 -21963117.738 -12712541.968 10 0 59406 11700.00000 0 -2521090.809 -23364126.703 -9930600.613 10 0 59406 12600.00000 0 -2570036.078 -24413033.919 -6955831.381 10 0 59406 13500.00000 0 -2692925.973 -25081148.008 -3846031.791 10 0 59406 14400.00000 0 -2836793.602 -25352243.025 -661589.824 10 0 59406 15300.00000 0 -2947082.204 -25223168.257 2535689.258 10 0 59406 16200.00000 0 -2970194.118 -24703929.306 5683781.415 10 0 59406 17100.00000 0 -2855999.950 -23817238.058 8721644.315 10 0 59406 18000.00000 0 -2560201.720 -22597551.220 11590396.460 10 0 59406 18900.00000 0 -2046450.135 -21089638.407 14234452.404 10 0 59406 19800.00000 0 -1288126.611 -19346740.125 16602592.528 10 0 59406 20700.00000 0 -269714.890 -17428392.868 18648947.238 10 0 59406 21600.00000 0 1012295.750 -15398011.991 20333877.402 10 0 59406 22500.00000 0 2549014.194 -13320332.728 21624734.883 10 0 59406 23400.00000 0 4319275.510 -11258815.336 22496489.280 10 0 59406 24300.00000 0 6290289.160 -9273121.451 22932209.580 10 0 59406 25200.00000 0 8418781.821 -7416765.653 22923391.914 10 0 59406 26100.00000 0 10652588.826 -5735038.908 22470127.327 10 0 59406 27000.00000 0 12932629.734 -4263289.307 21581106.206 10 0 59406 27900.00000 0 15195187.631 -3025630.802 20273458.810 10 0 59406 28800.00000 0 17374398.845 -2034133.183 18572434.165 10 0 59406 29700.00000 0 19404850.797 -1288526.623 16510922.520 10 0 59406 30600.00000 0 21224180.767 -776432.901 14128829.349 10 0 59406 31500.00000 0 22775567.661 -474113.575 11472311.884 10 0 59406 32400.00000 0 24010012.833 -347703.625 8592891.862 10 0 59406 33300.00000 0 24888314.280 -354878.631 5546460.815 10 0 59406 34200.00000 0 25382650.793 -446885.076 2392196.780 10 0 59406 35100.00000 0 25477708.800 -570847.658 -808586.702 10 0 59406 36000.00000 0 25171303.571 -672255.450 -3993636.706 10 0 59406 36900.00000 0 24474467.752 -697520.790 -7100978.222 10 0 59406 37800.00000 0 23411002.721 -596501.382 -10070128.146 10 0 59406 38700.00000 0 22016511.094 -324877.396 -12843281.382 10 0 59406 39600.00000 0 20336950.823 153718.562 -15366444.855 10 0 59406 40500.00000 0 18426771.691 865910.334 -17590496.478 10 0 59406 41400.00000 0 16346712.714 1827203.192 -19472147.727 10 0 59406 42300.00000 0 14161353.333 3041084.377 -20974790.507 10 0 59406 43200.00000 0 11936521.491 4498638.403 -22069211.611 10 0 59406 44100.00000 0 9736667.489 6178694.390 -22734160.900 10 0 59406 45000.00000 0 7622313.766 8048500.056 -22956762.298 10 0 59406 45900.00000 0 5647687.105 10064894.778 -22732760.038 10 0 59406 46800.00000 0 3858631.793 12175933.017 -22066595.784 10 0 59406 47700.00000 0 2290890.210 14322890.445 -20971315.639 10 0 59406 48600.00000 0 968821.545 16442569.054 -19468309.296 10 0 59406 49500.00000 0 -95389.260 18469805.044 -17586886.821 10 0 59406 50400.00000 0 -902000.863 20340074.678 -15363701.686 10 0 59406 51300.00000 0 -1463453.811 21992089.324 -12842031.581 10 0 59406 52200.00000 0 -1803590.671 23370271.341 -10070931.282 10 0 59406 53100.00000 0 -1956392.654 24427007.451 -7104274.393 10 0 59406 54000.00000 0 -1964287.685 25124585.684 -3999702.871 10 0 59406 54900.00000 0 -1876102.776 25436735.280 -817505.024 10 0 59406 55800.00000 0 -1744748.339 25349705.615 2380555.851 10 0 59406 56700.00000 0 -1624733.178 24862839.655 5532439.261 10 0 59406 57600.00000 0 -1569615.790 23988618.593 8577028.418 10 0 59406 58500.00000 0 -1629499.962 22752176.470 11455310.884 10 0 59406 59400.00000 0 -1848680.596 21190305.624 14111516.381 10 0 59406 60300.00000 0 -2263539.111 19349994.902 16494190.182 10 0 59406 61200.00000 0 -2900777.082 17286561.822 18557181.849 10 0 59406 62100.00000 0 -3776062.599 15061456.434 20260531.064 10 0 59406 63000.00000 0 -4893146.487 12739827.891 21571234.279 10 0 59406 63900.00000 0 -6243486.009 10387954.352 22463878.210 10 0 59406 64800.00000 0 -7806392.698 8070642.083 22921128.724 10 0 59406 65700.00000 0 -9549699.332 5848700.716 22934066.215 10 0 59406 66600.00000 0 -11430919.633 3776598.432 22502361.220 10 0 59406 67500.00000 0 -13398853.962 1900393.308 21634286.829 10 0 59406 68400.00000 0 -15395575.775 256025.773 20346567.149 10 0 59406 69300.00000 0 -17358717.647 -1131957.593 18664064.005 10 0 59406 70200.00000 0 -19223962.969 -2251196.410 16619306.896 10 0 59406 71100.00000 0 -20927640.505 -3101792.407 14251874.078 10 0 59406 72000.00000 0 -22409314.059 -3696057.554 11607635.593 10 0 59406 72900.00000 0 -23614259.253 -4057745.179 8737871.810 10 0 59406 73800.00000 0 -24495723.475 -4220796.500 5698283.659 10 0 59406 74700.00000 0 -25016873.574 -4227655.485 2547913.319 10 0 59406 75600.00000 0 -25152348.623 -4127223.491 -652003.897 10 0 59406 76500.00000 0 -24889351.338 -3972540.608 -3839233.920 10 0 59406 77400.00000 0 -24228231.055 -3818292.543 -6951760.714 10 0 59406 78300.00000 0 -23182532.607 -3718249.630 -9929000.984 10 0 59406 79200.00000 0 -21778508.124 -3722747.640 -12712992.215 10 0 59406 80100.00000 0 -20054111.587 -3876318.438 -15249529.812 10 0 59406 81000.00000 0 -18057518.054 -4215572.230 -17489230.290 10 0 59406 81900.00000 0 -15845229.583 -4767422.405 -19388499.082 10 0 59406 82800.00000 0 -13479847.453 -5547729.286 -20910383.522 10 0 59406 83700.00000 0 -11027604.267 -6560421.230 -22025294.199 10 0 59406 84600.00000 0 -8555759.380 -7797131.106 -22711580.615 10 0 59406 85500.00000 0 -6129966.798 -9237364.211 -22955950.135 10 0 59407 0.00000 0 -3811725.367 -10849191.125 -22753722.479 10 0 59407 900.00000 0 -1656017.415 -12590437.108 -22108915.147 10 0 59407 1800.00000 0 290766.570 -14410317.612 -21034158.820 10 0 59407 2700.00000 0 1992530.684 -16251452.534 -19550444.532 10 0 59407 3600.00000 0 3424735.389 -18052174.012 -17686708.222 10 0 59407 4500.00000 0 4575166.005 -19749031.451 -15479260.962 10 0 59407 5400.00000 0 5444178.249 -21279388.722 -12971076.353 10 0 59407 6300.00000 0 6044412.341 -22584004.784 -10210949.191 10 0 59407 7200.00000 0 6399989.705 -23609489.575 -7252542.139 10 0 59407 8100.00000 0 6545227.980 -24310532.394 -4153339.227 10 0 59407 9000.00000 0 6522930.252 -24651809.589 -973526.769 10 0 59407 9900.00000 0 6382322.093 -24609491.846 2225176.141 10 0 59407 10800.00000 0 6176724.675 -24172288.305 5380714.719 10 0 59407 11700.00000 0 5961063.091 -23341984.145 8431899.777 10 0 59407 12600.00000 0 5789315.582 -22133449.578 11319589.897 10 0 59407 13500.00000 0 5712011.651 -20574120.172 13987831.813 10 0 59407 14400.00000 0 5773884.635 -18702970.446 16384937.384 10 0 59407 15300.00000 0 6011777.578 -16569023.607 18464476.862 10 0 59407 16200.00000 0 6452890.507 -14229459.308 20186170.072 10 0 59407 17100.00000 0 7113442.786 -11747397.662 21516659.171 10 0 59407 18000.00000 0 7997806.916 -9189450.954 22430148.864 10 0 59407 18900.00000 0 9098150.586 -6623143.722 22908902.525 10 0 59407 19800.00000 0 10394602.794 -4114307.069 22943585.199 10 0 59407 20700.00000 0 11855938.148 -1724554.152 22533447.077 10 0 59407 21600.00000 0 13440752.166 491059.715 21686343.896 10 0 59407 22500.00000 0 15099079.993 2486096.410 20418593.370 10 0 59407 23400.00000 0 16774392.459 4224429.175 18754669.693 10 0 59407 24300.00000 0 18405887.576 5681501.972 16726740.991 10 0 59407 25200.00000 0 19930982.873 6845102.137 14374057.469 10 0 59407 26100.00000 0 21287905.120 7715614.411 11742200.913 10 0 59407 27000.00000 0 22418269.402 8305745.964 8882208.996 10 0 59407 27900.00000 0 23269539.303 8639734.156 5849590.436 10 0 59407 28800.00000 0 23797264.389 8752070.444 2703249.642 10 0 59407 29700.00000 0 23967000.022 8685794.523 -495658.483 10 0 59407 30600.00000 0 23755827.557 8490431.112 -3684921.146 10 0 59407 31500.00000 0 23153409.546 8219657.209 -6802483.856 10 0 59407 32400.00000 0 22162534.174 7928799.398 -9787665.772 10 0 59407 33300.00000 0 20799124.682 7672268.205 -12582349.605 10 0 59407 34200.00000 0 19091712.359 7501039.333 -15132121.797 10 0 59407 35100.00000 0 17080394.430 7460289.698 -17387339.895 10 0 59407 36000.00000 0 14815320.088 7587289.562 -19304105.563 10 0 59407 36900.00000 0 12354767.935 7909641.055 -20845123.682 10 0 59407 37800.00000 0 9762895.335 8443938.524 -21980430.578 10 0 59407 38700.00000 0 7107253.823 9194908.090 -22687977.159 10 0 59407 39600.00000 0 4456174.498 10155063.297 -22954055.782 10 0 59407 40500.00000 0 1876132.487 11304891.764 -22773562.914 10 0 59407 41400.00000 0 -570799.924 12613565.282 -22150092.911 10 0 59407 42300.00000 0 -2829305.687 14040143.528 -21095861.578 10 0 59407 43200.00000 0 -4852883.760 15535220.865 -19631461.470 10 0 59407 44100.00000 0 -6605533.427 17042946.954 -17785454.103 10 0 59407 45000.00000 0 -8062993.285 18503336.190 -15593807.420 10 0 59407 45900.00000 0 -9213484.879 19854768.863 -13099189.760 10 0 59407 46800.00000 0 -10057931.790 21036578.887 -10350134.375 10 0 59407 47700.00000 0 -10609646.969 21991619.333 -7400091.069 10 0 59407 48600.00000 0 -10893503.508 22668697.956 -4306383.712 10 0 59407 49500.00000 0 -10944625.604 23024780.494 -1129094.146 10 0 59407 50400.00000 0 -10806656.524 23026869.263 2070105.451 10 0 59407 51300.00000 0 -10529678.033 22653478.386 5229148.865 10 0 59407 52200.00000 0 -10167870.109 21895643.912 8286777.504 10 0 59407 53100.00000 0 -9777010.431 20757426.722 11183724.025 10 0 59407 54000.00000 0 -9411919.538 19255887.254 13863855.238 10 0 59407 54900.00000 0 -9123959.488 17420533.152 16275252.630 10 0 59407 55800.00000 0 -8958691.313 15292262.748 18371210.085 10 0 59407 56700.00000 0 -8953789.632 12921848.089 20111130.371 10 0 59407 57600.00000 0 -9137301.893 10368020.007 21461303.947 10 0 59407 58500.00000 0 -9526325.192 7695234.025 22395555.842 10 0 59407 59400.00000 0 -10126156.278 4971208.787 22895748.940 10 0 59407 60300.00000 0 -10929950.704 2264337.792 22952134.542 10 0 59407 61200.00000 0 -11918906.081 -358919.486 22563543.642 10 0 59407 62100.00000 0 -13062962.703 -2836560.374 21737415.252 10 0 59407 63000.00000 0 -14321993.487 -5113372.358 20489660.757 10 0 59407 63900.00000 0 -15647434.740 -7142981.214 18844366.193 10 0 59407 64800.00000 0 -16984290.882 -8889529.782 16833337.199 10 0 59407 65700.00000 0 -18273430.403 -10328918.197 14495494.243 10 0 59407 66600.00000 0 -19454077.722 -11449554.247 11876128.657 10 0 59407 67500.00000 0 -20466397.005 -12252582.796 9026032.767 10 0 59407 68400.00000 0 -21254059.514 -12751584.828 6000520.056 10 0 59407 69300.00000 0 -21766686.159 -12971758.818 2858353.861 10 0 59407 70200.00000 0 -21962061.664 -12948619.079 -339394.823 10 0 59407 71100.00000 0 -21808025.902 -12726266.244 -3530538.098 10 0 59407 72000.00000 0 -21283961.276 -12355303.378 -6652986.696 10 0 59407 72900.00000 0 -20381811.928 -11890486.513 -9645965.893 10 0 59407 73800.00000 0 -19106590.264 -11388209.874 -12451207.192 10 0 59407 74700.00000 0 -17476348.114 -10903933.256 -15014091.464 10 0 59407 75600.00000 0 -15521612.534 -10489661.545 -17284720.388 10 0 59407 76500.00000 0 -13284309.053 -10191584.137 -19218894.570 10 0 59407 77400.00000 0 -10816216.947 -10047975.079 -20778978.633 10 0 59407 78300.00000 0 -8177020.886 -10087443.544 -21934636.235 10 0 59407 79200.00000 0 -5432040.214 -10327609.158 -22663420.622 10 0 59407 80100.00000 0 -2649730.695 -10774258.488 -22951209.402 10 0 59407 81000.00000 0 100937.178 -11421018.468 -22792475.410 10 0 59407 81900.00000 0 2753114.266 -12249560.542 -22190388.865 10 0 59407 82800.00000 0 5244613.723 -13230326.772 -21156749.258 10 0 59407 83700.00000 0 7520251.629 -14323747.122 -19711748.802 10 0 59407 84600.00000 0 9533890.726 -15481896.387 -17883572.422 10 0 59407 85500.00000 0 11250103.142 -16650520.702 -15707842.510 99